Time,TemperatureF,DewpointF,PressureIn,WindDirection,WindDirectionDegrees,WindSpeedMPH,WindSpeedGustMPH,Humidity,HourlyPrecipIn,Conditions,Clouds,dailyrainin,SoftwareType,DateUTC
2013-03-10 00:01:00,39.7,38.1,29.64,North,4,10.0,18.0,94,0.00,,-RA,0.00,VWS V14.01,2013-03-10 06:01:00,
2013-03-10 00:06:00,39.5,37.9,29.63,North,4,10.0,17.0,94,0.00,,-RA,0.00,VWS V14.01,2013-03-10 06:06:00,
2013-03-10 00:11:00,39.3,37.7,29.64,NNE,22,10.0,18.0,94,0.00,,-RA,0.00,VWS V14.01,2013-03-10 06:11:00,
2013-03-10 00:16:00,39.2,37.6,29.63,North,4,15.0,17.0,94,0.00,,-RA,0.00,VWS V14.01,2013-03-10 06:16:00,
2013-03-10 00:21:00,39.1,37.5,29.64,NNE,13,11.0,14.0,94,0.00,,-RA,0.00,VWS V14.01,2013-03-10 06:21:00,
2013-03-10 00:26:00,39.0,37.4,29.63,NNE,21,12.0,13.0,94,0.00,,-RA,0.00,VWS V14.01,2013-03-10 06:26:00,
2013-03-10 00:31:00,38.8,37.2,29.65,NNE,26,10.0,10.0,94,0.00,,-RA,0.00,VWS V14.01,2013-03-10 06:31:00,
2013-03-10 00:36:00,38.8,37.2,29.65,NNW,348,3.0,10.0,94,0.00,,-RA,0.00,VWS V14.01,2013-03-10 06:36:00,
2013-03-10 00:41:00,38.6,37.0,29.65,NE,35,9.0,17.0,94,0.00,,-RA,0.00,VWS V14.01,2013-03-10 06:41:00,
2013-03-10 00:46:00,38.6,37.0,29.64,North,4,8.0,17.0,94,0.00,,-RA,0.00,VWS V14.01,2013-03-10 06:46:00,
2013-03-10 00:51:00,38.5,36.9,29.64,NE,39,12.0,18.0,94,0.00,,OVC018,0.00,VWS V14.01,2013-03-10 06:51:00,
2013-03-10 00:56:00,38.4,36.8,29.65,NE,36,8.0,11.0,94,0.00,,OVC018,0.00,VWS V14.01,2013-03-10 06:56:00,
2013-03-10 01:01:00,38.3,36.7,29.65,North,350,7.0,14.0,94,0.00,,OVC018,0.00,VWS V14.01,2013-03-10 07:01:00,
2013-03-10 01:06:00,38.2,36.6,29.65,NNW,335,4.0,12.0,94,0.00,,OVC018,0.00,VWS V14.01,2013-03-10 07:06:00,
2013-03-10 01:11:00,38.0,36.4,29.66,North,354,13.0,13.0,94,0.00,,OVC018,0.00,VWS V14.01,2013-03-10 07:11:00,
2013-03-10 01:16:00,37.8,36.2,29.66,NNE,18,7.0,12.0,94,0.00,,OVC018,0.00,VWS V14.01,2013-03-10 07:16:00,
2013-03-10 01:21:00,37.6,35.8,29.66,NNW,342,7.0,15.0,93,0.00,,OVC018,0.00,VWS V14.01,2013-03-10 07:21:00,
2013-03-10 01:26:00,37.4,35.8,29.66,NNE,13,14.0,14.0,94,0.00,,OVC018,0.00,VWS V14.01,2013-03-10 07:26:00,
2013-03-10 01:32:00,37.3,35.7,29.65,NNE,14,5.0,10.0,94,0.00,,OVC018,0.00,VWS V14.01,2013-03-10 07:32:00,
2013-03-10 01:37:00,37.1,35.5,29.65,North,4,6.0,10.0,94,0.00,,OVC018,0.00,VWS V14.01,2013-03-10 07:37:00,
2013-03-10 01:42:00,36.9,35.1,29.65,NNE,17,13.0,14.0,93,0.00,,OVC018,0.00,VWS V14.01,2013-03-10 07:42:00,
2013-03-10 01:47:00,36.7,35.1,29.65,North,349,4.0,10.0,94,0.00,,OVC018,0.00,VWS V14.01,2013-03-10 07:47:00,
2013-03-10 01:52:00,36.6,35.0,29.65,NNW,339,5.0,13.0,94,0.00,,OVC018,0.00,VWS V14.01,2013-03-10 07:52:00,
2013-03-10 01:57:00,36.5,34.7,29.66,NNW,342,4.0,15.0,93,0.00,,OVC018,0.00,VWS V14.01,2013-03-10 07:57:00,
2013-03-10 03:02:00,36.4,34.6,29.66,NE,37,5.0,10.0,93,0.00,,OVC018,0.00,VWS V14.01,2013-03-10 08:02:00,
2013-03-10 03:07:00,36.3,34.5,29.67,NW,325,4.0,11.0,93,0.00,,OVC018,0.00,VWS V14.01,2013-03-10 08:07:00,
2013-03-10 03:12:00,36.2,34.6,29.67,NNW,333,5.0,9.0,94,0.00,,OVC018,0.00,VWS V14.01,2013-03-10 08:12:00,
2013-03-10 03:17:00,36.1,34.5,29.68,NW,319,10.0,11.0,94,0.00,,OVC018,0.00,VWS V14.01,2013-03-10 08:17:00,
2013-03-10 03:22:00,36.0,34.2,29.68,North,10,3.0,12.0,93,0.00,,OVC018,0.00,VWS V14.01,2013-03-10 08:22:00,
2013-03-10 03:27:00,35.9,34.1,29.68,NNE,27,13.0,18.0,93,0.00,,OVC018,0.00,VWS V14.01,2013-03-10 08:27:00,
2013-03-10 03:32:00,35.7,33.9,29.67,NNW,343,6.0,15.0,93,0.00,,OVC018,0.01,VWS V14.01,2013-03-10 08:32:00,
2013-03-10 03:37:00,35.6,33.8,29.68,North,354,7.0,20.0,93,0.00,,OVC018,0.01,VWS V14.01,2013-03-10 08:37:00,
2013-03-10 03:42:00,35.5,34.0,29.66,North,4,14.0,20.0,94,0.00,,OVC018,0.01,VWS V14.01,2013-03-10 08:42:00,
2013-03-10 03:47:00,35.3,33.8,29.65,NNE,15,12.0,18.0,94,0.00,,OVC018,0.01,VWS V14.01,2013-03-10 08:47:00,
2013-03-10 03:52:00,35.1,33.5,29.65,NNE,15,22.0,22.0,94,0.00,,OVC018,0.01,VWS V14.01,2013-03-10 08:52:00,
2013-03-10 03:57:00,35.0,33.2,29.65,North,354,13.0,17.0,93,0.00,,OVC018,0.01,VWS V14.01,2013-03-10 08:57:00,
2013-03-10 04:02:00,35.0,33.2,29.64,NNE,18,20.0,20.0,93,0.00,,OVC018,0.01,VWS V14.01,2013-03-10 09:02:00,
2013-03-10 04:07:00,34.9,33.1,29.64,North,4,6.0,13.0,93,0.00,,OVC018,0.01,VWS V14.01,2013-03-10 09:07:00,
2013-03-10 04:12:00,34.8,33.0,29.65,North,8,10.0,18.0,93,0.00,,OVC018,0.01,VWS V14.01,2013-03-10 09:12:00,
2013-03-10 04:17:00,34.8,33.0,29.65,NNE,16,12.0,21.0,93,0.00,,OVC018,0.01,VWS V14.01,2013-03-10 09:17:00,
2013-03-10 04:22:00,34.8,33.0,29.64,North,354,12.0,23.0,93,0.00,,OVC018,0.01,VWS V14.01,2013-03-10 09:22:00,
2013-03-10 04:27:00,34.8,33.0,29.65,North,10,14.0,26.0,93,0.00,,OVC018,0.01,VWS V14.01,2013-03-10 09:27:00,
2013-03-10 04:32:00,34.8,33.0,29.67,North,359,13.0,18.0,93,0.00,,,0.01,VWS V14.01,2013-03-10 09:32:00,
2013-03-10 04:37:00,34.8,33.0,29.67,North,354,7.0,21.0,93,0.00,,,0.01,VWS V14.01,2013-03-10 09:37:00,
2013-03-10 04:42:00,34.8,32.7,29.67,North,8,12.0,16.0,92,0.00,,,0.01,VWS V14.01,2013-03-10 09:42:00,
2013-03-10 04:47:00,34.7,32.6,29.68,NNE,21,14.0,14.0,92,0.00,,,0.01,VWS V14.01,2013-03-10 09:47:00,
2013-03-10 04:53:00,34.7,32.6,29.68,NNE,19,15.0,15.0,92,0.00,,,0.01,VWS V14.01,2013-03-10 09:53:00,
2013-03-10 04:58:00,34.6,32.5,29.67,NNE,16,13.0,17.0,92,0.00,,,0.01,VWS V14.01,2013-03-10 09:58:00,
2013-03-10 05:03:00,34.5,32.4,29.66,North,4,15.0,17.0,92,0.00,,,0.01,VWS V14.01,2013-03-10 10:03:00,
2013-03-10 05:08:00,34.4,32.3,29.67,North,4,11.0,17.0,92,0.00,,,0.01,VWS V14.01,2013-03-10 10:08:00,
2013-03-10 05:13:00,34.4,32.3,29.67,NNE,16,19.0,27.0,92,0.00,,,0.01,VWS V14.01,2013-03-10 10:13:00,
2013-03-10 05:18:00,34.3,32.2,29.67,NNW,345,15.0,20.0,92,0.00,,,0.01,VWS V14.01,2013-03-10 10:18:00,
2013-03-10 05:23:00,34.3,32.2,29.68,North,354,8.0,17.0,92,0.00,,,0.01,VWS V14.01,2013-03-10 10:23:00,
2013-03-10 05:28:00,34.3,32.2,29.69,North,4,7.0,19.0,92,0.00,,,0.02,VWS V14.01,2013-03-10 10:28:00,
2013-03-10 05:33:00,34.3,32.2,29.68,NNW,337,12.0,18.0,92,0.00,,,0.02,VWS V14.01,2013-03-10 10:33:00,
2013-03-10 05:38:00,34.3,32.2,29.68,North,4,17.0,17.0,92,0.00,,,0.02,VWS V14.01,2013-03-10 10:38:00,
2013-03-10 05:43:00,34.2,32.1,29.68,NNE,18,10.0,23.0,92,0.00,,,0.02,VWS V14.01,2013-03-10 10:43:00,
2013-03-10 05:48:00,34.2,32.1,29.68,North,359,15.0,19.0,92,0.00,,,0.02,VWS V14.01,2013-03-10 10:48:00,
2013-03-10 05:53:00,34.1,32.0,29.70,NNE,33,6.0,19.0,92,0.00,,,0.02,VWS V14.01,2013-03-10 10:53:00,
2013-03-10 05:58:00,34.1,32.0,29.71,North,4,12.0,17.0,92,0.00,,,0.02,VWS V14.01,2013-03-10 10:58:00,
2013-03-10 06:03:00,34.1,32.0,29.72,NNW,338,9.0,14.0,92,0.00,,,0.02,VWS V14.01,2013-03-10 11:03:00,
2013-03-10 06:08:00,34.1,32.0,29.73,NNE,23,3.0,12.0,92,0.00,,,0.02,VWS V14.01,2013-03-10 11:08:00,
2013-03-10 06:13:00,34.1,31.8,29.74,NE,35,6.0,16.0,91,0.00,,,0.02,VWS V14.01,2013-03-10 11:13:00,
2013-03-10 06:18:00,34.0,31.9,29.73,NNE,15,8.0,17.0,92,0.00,,,0.02,VWS V14.01,2013-03-10 11:18:00,
2013-03-10 06:23:00,33.9,31.8,29.73,NNE,21,7.0,10.0,92,0.00,,,0.02,VWS V14.01,2013-03-10 11:23:00,
2013-03-10 06:28:00,33.8,31.7,29.72,NNE,27,18.0,21.0,92,0.00,,,0.02,VWS V14.01,2013-03-10 11:28:00,
2013-03-10 06:33:00,33.7,31.6,29.72,NNW,342,10.0,13.0,92,0.00,,,0.02,VWS V14.01,2013-03-10 11:33:00,
2013-03-10 06:38:00,33.6,31.5,29.73,NNW,340,7.0,16.0,92,0.00,,,0.02,VWS V14.01,2013-03-10 11:38:00,
2013-03-10 06:43:00,33.6,31.5,29.73,NNW,345,11.0,14.0,92,0.00,,,0.02,VWS V14.01,2013-03-10 11:43:00,
2013-03-10 06:48:00,33.5,31.4,29.73,North,359,7.0,14.0,92,0.00,,,0.02,VWS V14.01,2013-03-10 11:48:00,
2013-03-10 06:53:00,33.5,31.4,29.73,North,359,16.0,25.0,92,0.00,,,0.02,VWS V14.01,2013-03-10 11:53:00,
2013-03-10 06:58:00,33.5,31.4,29.73,North,359,11.0,14.0,92,0.00,,,0.02,VWS V14.01,2013-03-10 11:58:00,
2013-03-10 07:03:00,33.4,31.1,29.72,NNW,348,6.0,16.0,91,0.00,,,0.02,VWS V14.01,2013-03-10 12:03:00,
2013-03-10 07:08:00,33.3,31.0,29.72,NNE,25,13.0,23.0,91,0.00,,,0.02,VWS V14.01,2013-03-10 12:08:00,
2013-03-10 07:13:00,33.2,30.9,29.73,NNE,32,13.0,15.0,91,0.00,,,0.02,VWS V14.01,2013-03-10 12:13:00,
2013-03-10 07:18:00,33.1,30.8,29.73,NNE,27,19.0,19.0,91,0.00,,,0.02,VWS V14.01,2013-03-10 12:18:00,
2013-03-10 07:23:00,33.0,30.7,29.71,North,4,12.0,18.0,91,0.00,,,0.02,VWS V14.01,2013-03-10 12:23:00,
2013-03-10 07:28:00,32.9,30.6,29.72,North,4,10.0,16.0,91,0.00,,,0.02,VWS V14.01,2013-03-10 12:28:00,
2013-03-10 07:33:00,32.8,30.5,29.73,North,354,13.0,20.0,91,0.00,,,0.02,VWS V14.01,2013-03-10 12:33:00,
2013-03-10 07:38:00,32.7,30.4,29.74,North,354,8.0,11.0,91,0.00,,,0.02,VWS V14.01,2013-03-10 12:38:00,
2013-03-10 07:43:00,32.7,30.4,29.73,NE,45,13.0,17.0,91,0.00,,,0.02,VWS V14.01,2013-03-10 12:43:00,
2013-03-10 07:48:00,32.7,30.4,29.74,NNE,22,13.0,15.0,91,0.00,,,0.02,VWS V14.01,2013-03-10 12:48:00,
2013-03-10 07:53:00,32.6,30.3,29.74,NNW,335,8.0,13.0,91,0.00,,,0.02,VWS V14.01,2013-03-10 12:53:00,
2013-03-10 07:58:00,32.5,29.9,29.75,NNE,12,10.0,22.0,90,0.00,,,0.02,VWS V14.01,2013-03-10 12:58:00,
2013-03-10 08:03:00,32.5,29.9,29.75,NNE,21,15.0,21.0,90,0.00,,,0.02,VWS V14.01,2013-03-10 13:03:00,
2013-03-10 08:08:00,32.5,29.9,29.75,North,359,12.0,19.0,90,0.00,,,0.02,VWS V14.01,2013-03-10 13:08:00,
2013-03-10 08:14:00,32.4,29.8,29.76,NNE,21,8.0,13.0,90,0.00,,,0.02,VWS V14.01,2013-03-10 13:14:00,
2013-03-10 08:19:00,32.5,29.9,29.75,NNW,339,5.0,16.0,90,0.00,,,0.02,VWS V14.01,2013-03-10 13:19:00,
2013-03-10 08:24:00,32.4,29.8,29.75,NNE,32,10.0,13.0,90,0.00,,,0.02,VWS V14.01,2013-03-10 13:24:00,
2013-03-10 08:29:00,32.3,29.7,29.75,North,4,11.0,17.0,90,0.00,,,0.02,VWS V14.01,2013-03-10 13:29:00,
2013-03-10 08:34:00,32.2,29.6,29.74,North,10,20.0,25.0,90,0.00,,,0.02,VWS V14.01,2013-03-10 13:34:00,
2013-03-10 08:39:00,32.1,29.5,29.75,NNW,347,2.0,17.0,90,0.00,,,0.02,VWS V14.01,2013-03-10 13:39:00,
2013-03-10 08:44:00,32.1,29.5,29.76,NNW,335,6.0,16.0,90,0.00,,,0.02,VWS V14.01,2013-03-10 13:44:00,
2013-03-10 08:49:00,32.1,29.5,29.78,North,349,7.0,14.0,90,0.00,,,0.02,VWS V14.01,2013-03-10 13:49:00,
2013-03-10 08:54:00,32.0,29.4,29.77,North,8,11.0,21.0,90,0.00,,,0.02,VWS V14.01,2013-03-10 13:54:00,
2013-03-10 08:59:00,31.9,29.0,29.77,North,11,12.0,25.0,89,0.00,,,0.02,VWS V14.01,2013-03-10 13:59:00,
2013-03-10 09:04:00,31.9,29.0,29.77,North,354,10.0,18.0,89,0.00,,,0.02,VWS V14.01,2013-03-10 14:04:00,
2013-03-10 09:09:00,31.9,29.0,29.77,NNW,347,11.0,21.0,89,0.00,,,0.02,VWS V14.01,2013-03-10 14:09:00,
2013-03-10 09:14:00,31.9,29.0,29.78,NW,308,5.0,14.0,89,0.00,,,0.02,VWS V14.01,2013-03-10 14:14:00,
2013-03-10 09:19:00,31.8,28.9,29.77,NNW,337,8.0,17.0,89,0.00,,,0.02,VWS V14.01,2013-03-10 14:19:00,
2013-03-10 09:24:00,31.7,29.1,29.77,WNW,294,14.0,17.0,90,0.00,,,0.02,VWS V14.01,2013-03-10 14:24:00,
2013-03-10 09:29:00,31.6,29.0,29.76,North,349,8.0,20.0,90,0.00,,,0.02,VWS V14.01,2013-03-10 14:29:00,
2013-03-10 09:34:00,31.4,28.5,29.76,NNE,12,7.0,24.0,89,0.00,,,0.02,VWS V14.01,2013-03-10 14:34:00,
2013-03-10 09:39:00,31.4,28.8,29.76,NNW,348,17.0,20.0,90,0.00,,,0.02,VWS V14.01,2013-03-10 14:39:00,
2013-03-10 09:44:00,31.4,28.8,29.76,North,359,10.0,21.0,90,0.00,,,0.02,VWS V14.01,2013-03-10 14:44:00,
2013-03-10 09:49:00,31.3,29.0,29.78,NNW,347,7.0,18.0,91,0.00,,,0.02,VWS V14.01,2013-03-10 14:49:00,
2013-03-10 09:55:00,31.1,28.5,29.78,NNW,346,8.0,21.0,90,0.00,,,0.02,VWS V14.01,2013-03-10 14:55:00,
2013-03-10 10:00:00,31.1,28.8,29.79,North,4,8.0,15.0,91,0.00,,,0.02,VWS V14.01,2013-03-10 15:00:00,
2013-03-10 10:05:00,31.0,28.7,29.79,North,4,18.0,19.0,91,0.00,,,0.02,VWS V14.01,2013-03-10 15:05:00,
2013-03-10 10:10:00,31.0,28.7,29.78,NNW,347,5.0,17.0,91,0.00,,,0.02,VWS V14.01,2013-03-10 15:10:00,
2013-03-10 10:15:00,31.0,28.7,29.79,NE,41,10.0,22.0,91,0.00,,,0.02,VWS V14.01,2013-03-10 15:15:00,
2013-03-10 10:20:00,31.0,28.7,29.79,NNE,21,10.0,20.0,91,0.00,,,0.02,VWS V14.01,2013-03-10 15:20:00,
2013-03-10 10:25:00,30.9,28.6,29.79,NNW,347,9.0,17.0,91,0.00,,,0.02,VWS V14.01,2013-03-10 15:25:00,
2013-03-10 10:30:00,30.8,28.5,29.79,North,359,19.0,21.0,91,0.00,,,0.02,VWS V14.01,2013-03-10 15:30:00,
2013-03-10 10:35:00,30.7,28.7,29.79,NNE,13,10.0,17.0,92,0.00,,,0.02,VWS V14.01,2013-03-10 15:35:00,
2013-03-10 10:40:00,30.7,28.7,29.80,North,10,11.0,18.0,92,0.00,,,0.02,VWS V14.01,2013-03-10 15:40:00,
2013-03-10 10:45:00,30.7,28.7,29.79,North,354,4.0,9.0,92,0.00,,,0.02,VWS V14.01,2013-03-10 15:45:00,
2013-03-10 10:50:00,30.7,28.7,29.80,NNW,348,4.0,16.0,92,0.00,,,0.02,VWS V14.01,2013-03-10 15:50:00,
2013-03-10 10:55:00,30.4,28.1,29.80,NNE,20,16.0,19.0,91,0.00,,,0.02,VWS V14.01,2013-03-10 15:55:00,
2013-03-10 11:00:00,30.4,28.1,29.79,North,349,15.0,22.0,91,0.00,,,0.02,VWS V14.01,2013-03-10 16:00:00,
2013-03-10 11:05:00,30.2,27.9,29.79,NNE,33,17.0,21.0,91,0.00,,,0.02,VWS V14.01,2013-03-10 16:05:00,
2013-03-10 11:10:00,30.2,27.9,29.79,North,354,5.0,17.0,91,0.00,,,0.02,VWS V14.01,2013-03-10 16:10:00,
2013-03-10 11:15:00,30.2,27.9,29.79,North,359,9.0,11.0,91,0.00,,,0.02,VWS V14.01,2013-03-10 16:15:00,
2013-03-10 11:20:00,30.1,28.1,29.79,NNE,28,15.0,20.0,92,0.00,,,0.02,VWS V14.01,2013-03-10 16:20:00,
2013-03-10 11:25:00,29.9,27.6,29.79,North,354,6.0,20.0,91,0.00,,,0.02,VWS V14.01,2013-03-10 16:25:00,
2013-03-10 11:30:00,30.0,27.7,29.80,North,10,8.0,17.0,91,0.00,,,0.02,VWS V14.01,2013-03-10 16:30:00,
2013-03-10 11:35:00,30.0,27.7,29.81,NNE,16,17.0,18.0,91,0.00,,,0.02,VWS V14.01,2013-03-10 16:35:00,
2013-03-10 11:40:00,30.0,27.7,29.81,North,359,10.0,18.0,91,0.00,,,0.02,VWS V14.01,2013-03-10 16:40:00,
2013-03-10 11:45:00,30.0,28.0,29.81,NNW,327,12.0,12.0,92,0.00,,,0.02,VWS V14.01,2013-03-10 16:45:00,
2013-03-10 11:50:00,30.0,28.0,29.80,NNE,12,4.0,20.0,92,0.00,,,0.02,VWS V14.01,2013-03-10 16:50:00,
2013-03-10 11:55:00,30.1,28.1,29.80,NNW,336,7.0,14.0,92,0.00,,,0.02,VWS V14.01,2013-03-10 16:55:00,
2013-03-10 12:00:00,30.1,28.1,29.81,NW,318,6.0,12.0,92,0.00,,,0.02,VWS V14.01,2013-03-10 17:00:00,
2013-03-10 12:05:00,30.0,28.0,29.81,NNE,23,5.0,12.0,92,0.00,,,0.02,VWS V14.01,2013-03-10 17:05:00,
2013-03-10 12:10:00,29.9,27.9,29.81,North,8,12.0,18.0,92,0.00,,,0.02,VWS V14.01,2013-03-10 17:10:00,
2013-03-10 12:15:00,29.8,27.8,29.81,North,10,10.0,19.0,92,0.00,,,0.02,VWS V14.01,2013-03-10 17:15:00,
2013-03-10 12:20:00,29.9,27.9,29.82,NW,323,9.0,11.0,92,0.00,,,0.02,VWS V14.01,2013-03-10 17:20:00,
2013-03-10 12:25:00,29.9,28.1,29.82,NW,326,4.0,10.0,93,0.00,,,0.02,VWS V14.01,2013-03-10 17:25:00,
2013-03-10 12:30:00,29.9,28.1,29.82,North,8,5.0,13.0,93,0.00,,,0.02,VWS V14.01,2013-03-10 17:30:00,
2013-03-10 12:35:00,29.8,28.0,29.82,NW,311,8.0,15.0,93,0.00,,,0.02,VWS V14.01,2013-03-10 17:35:00,
2013-03-10 12:41:00,29.8,28.0,29.82,NW,312,6.0,16.0,93,0.00,,,0.02,VWS V14.01,2013-03-10 17:41:00,
2013-03-10 12:46:00,29.7,27.9,29.82,North,10,11.0,19.0,93,0.00,,,0.02,VWS V14.01,2013-03-10 17:46:00,
2013-03-10 12:51:00,29.6,27.8,29.82,NNW,343,7.0,13.0,93,0.00,,,0.02,VWS V14.01,2013-03-10 17:51:00,
2013-03-10 12:56:00,29.6,27.8,29.81,NW,316,6.0,14.0,93,0.00,,,0.02,VWS V14.01,2013-03-10 17:56:00,
2013-03-10 13:01:00,29.6,27.8,29.81,NW,320,9.0,17.0,93,0.00,,,0.02,VWS V14.01,2013-03-10 18:01:00,
2013-03-10 13:06:00,29.7,27.9,29.81,NNW,345,12.0,14.0,93,0.00,,,0.02,VWS V14.01,2013-03-10 18:06:00,
2013-03-10 13:11:00,29.6,27.8,29.82,NW,316,11.0,15.0,93,0.00,,,0.02,VWS V14.01,2013-03-10 18:11:00,
2013-03-10 13:16:00,29.6,27.8,29.82,NNW,341,5.0,9.0,93,0.00,,,0.02,VWS V14.01,2013-03-10 18:16:00,
2013-03-10 13:21:00,29.5,27.7,29.81,NNE,14,10.0,12.0,93,0.00,,,0.02,VWS V14.01,2013-03-10 18:21:00,
2013-03-10 13:27:00,29.2,27.4,29.81,NNW,345,11.0,13.0,93,0.00,,,0.02,VWS V14.01,2013-03-10 18:27:00,
2013-03-10 13:34:00,29.2,27.7,29.80,NNW,348,3.0,14.0,94,0.00,,,0.02,VWS V14.01,2013-03-10 18:34:00,
2013-03-10 13:39:00,29.2,27.7,29.80,North,359,10.0,14.0,94,0.00,,,0.02,VWS V14.01,2013-03-10 18:39:00,
2013-03-10 13:44:00,29.2,27.7,29.80,NE,38,12.0,16.0,94,0.00,,,0.02,VWS V14.01,2013-03-10 18:44:00,
2013-03-10 13:49:00,29.0,27.2,29.79,NNE,31,8.0,20.0,93,0.00,,,0.02,VWS V14.01,2013-03-10 18:49:00,
2013-03-10 13:54:00,29.0,27.2,29.80,North,349,4.0,15.0,93,0.00,,,0.02,VWS V14.01,2013-03-10 18:54:00,
2013-03-10 13:59:00,29.1,27.3,29.80,NW,307,3.0,8.0,93,0.00,,,0.02,VWS V14.01,2013-03-10 18:59:00,
2013-03-10 14:04:00,29.0,27.2,29.80,North,4,8.0,17.0,93,0.00,,,0.02,VWS V14.01,2013-03-10 19:04:00,
2013-03-10 14:09:00,28.9,27.1,29.79,North,359,4.0,13.0,93,0.00,,,0.02,VWS V14.01,2013-03-10 19:09:00,
2013-03-10 14:14:00,28.9,27.1,29.79,NNW,332,16.0,16.0,93,0.00,,,0.02,VWS V14.01,2013-03-10 19:14:00,
2013-03-10 14:19:00,28.9,26.9,29.79,NW,318,11.0,15.0,92,0.00,,,0.02,VWS V14.01,2013-03-10 19:19:00,
2013-03-10 14:24:00,29.0,27.0,29.79,NW,313,5.0,14.0,92,0.00,,,0.02,VWS V14.01,2013-03-10 19:24:00,
2013-03-10 14:29:00,29.0,27.0,29.79,NNW,344,10.0,12.0,92,0.00,,,0.02,VWS V14.01,2013-03-10 19:29:00,
2013-03-10 14:35:00,28.9,26.9,29.79,North,4,7.0,13.0,92,0.00,,,0.02,VWS V14.01,2013-03-10 19:35:00,
2013-03-10 14:41:00,28.8,26.8,29.79,NW,319,7.0,13.0,92,0.00,,,0.02,VWS V14.01,2013-03-10 19:41:00,
2013-03-10 14:47:00,28.6,26.3,29.78,WNW,287,12.0,15.0,91,0.00,,,0.02,VWS V14.01,2013-03-10 19:47:00,
2013-03-10 14:52:00,28.5,26.2,29.79,NNW,327,5.0,13.0,91,0.00,,,0.02,VWS V14.01,2013-03-10 19:52:00,
2013-03-10 14:57:00,28.7,26.4,29.79,NNW,330,7.0,10.0,91,0.00,,,0.02,VWS V14.01,2013-03-10 19:57:00,
2013-03-10 15:02:00,28.6,26.3,29.79,NW,316,8.0,10.0,91,0.00,,,0.02,VWS V14.01,2013-03-10 20:02:00,
2013-03-10 15:07:00,28.4,26.1,29.79,NNE,29,7.0,11.0,91,0.00,,,0.02,VWS V14.01,2013-03-10 20:07:00,
2013-03-10 15:33:00,28.4,25.9,29.81,NW,305,13.0,15.0,90,0.00,,,0.02,VWS V14.01,2013-03-10 20:33:00,
2013-03-10 15:38:00,28.4,25.9,29.82,NNW,332,6.0,14.0,90,0.00,,,0.02,VWS V14.01,2013-03-10 20:38:00,
2013-03-10 15:44:00,28.3,25.8,29.82,North,349,7.0,12.0,90,0.00,,,0.02,VWS V14.01,2013-03-10 20:44:00,
2013-03-10 15:49:00,28.3,25.8,29.82,NW,312,12.0,12.0,90,0.00,,,0.02,VWS V14.01,2013-03-10 20:49:00,
2013-03-10 15:54:00,28.3,25.8,29.82,WNW,303,5.0,12.0,90,0.00,,,0.02,VWS V14.01,2013-03-10 20:54:00,
2013-03-10 15:59:00,28.3,25.8,29.82,NNW,334,6.0,14.0,90,0.00,,,0.02,VWS V14.01,2013-03-10 20:59:00,
2013-03-10 16:04:00,28.3,25.8,29.82,NNE,22,12.0,13.0,90,0.00,,,0.02,VWS V14.01,2013-03-10 21:04:00,
2013-03-10 16:09:00,28.1,25.5,29.82,North,359,10.0,16.0,90,0.00,,,0.02,VWS V14.01,2013-03-10 21:09:00,
2013-03-10 16:14:00,28.1,25.3,29.83,NNW,345,11.0,16.0,89,0.00,,,0.02,VWS V14.01,2013-03-10 21:14:00,
2013-03-10 16:20:00,28.1,25.5,29.83,North,354,18.0,18.0,90,0.00,,,0.02,VWS V14.01,2013-03-10 21:20:00,
2013-03-10 16:25:00,28.1,25.3,29.83,NW,324,9.0,13.0,89,0.00,,,0.02,VWS V14.01,2013-03-10 21:25:00,
2013-03-10 16:30:00,28.1,25.5,29.83,NNW,345,8.0,11.0,90,0.00,,,0.02,VWS V14.01,2013-03-10 21:30:00,
2013-03-10 16:35:00,28.1,25.5,29.83,NNE,22,9.0,11.0,90,0.00,,,0.02,VWS V14.01,2013-03-10 21:35:00,
2013-03-10 16:40:00,28.0,25.5,29.83,NNW,345,10.0,17.0,90,0.00,,,0.02,VWS V14.01,2013-03-10 21:40:00,
2013-03-10 16:45:00,28.0,25.5,29.83,North,4,10.0,10.0,90,0.00,,,0.02,VWS V14.01,2013-03-10 21:45:00,
2013-03-10 16:50:00,27.9,25.4,29.83,NNW,332,7.0,15.0,90,0.00,,,0.02,VWS V14.01,2013-03-10 21:50:00,
2013-03-10 16:55:00,27.8,25.2,29.83,NW,323,8.0,12.0,90,0.00,,,0.02,VWS V14.01,2013-03-10 21:55:00,
2013-03-10 17:00:00,27.7,25.2,29.83,NW,321,9.0,11.0,90,0.00,,,0.02,VWS V14.01,2013-03-10 22:00:00,
2013-03-10 17:05:00,27.6,25.3,29.83,WNW,297,8.0,12.0,91,0.00,,,0.02,VWS V14.01,2013-03-10 22:05:00,
2013-03-10 17:10:00,27.5,25.0,29.83,NW,314,10.0,14.0,90,0.00,,,0.02,VWS V14.01,2013-03-10 22:10:00,
2013-03-10 17:15:00,27.5,25.0,29.84,NW,322,6.0,11.0,90,0.00,,,0.02,VWS V14.01,2013-03-10 22:15:00,
2013-03-10 17:20:00,27.4,24.9,29.84,NNW,327,9.0,14.0,90,0.00,,,0.02,VWS V14.01,2013-03-10 22:20:00,
2013-03-10 17:25:00,27.2,24.9,29.84,NW,318,3.0,9.0,91,0.00,,,0.02,VWS V14.01,2013-03-10 22:25:00,
2013-03-10 17:30:00,27.2,24.9,29.84,NW,310,10.0,14.0,91,0.00,,,0.02,VWS V14.01,2013-03-10 22:30:00,
2013-03-10 17:35:00,27.1,24.8,29.84,NW,314,11.0,12.0,91,0.00,,,0.02,VWS V14.01,2013-03-10 22:35:00,
2013-03-10 17:40:00,27.1,24.6,29.84,NNW,328,7.0,11.0,90,0.00,,,0.02,VWS V14.01,2013-03-10 22:40:00,
2013-03-10 17:45:00,27.1,24.6,29.84,NNW,337,10.0,13.0,90,0.00,,,0.02,VWS V14.01,2013-03-10 22:45:00,
2013-03-10 17:50:00,27.2,24.7,29.84,North,359,9.0,12.0,90,0.00,,,0.02,VWS V14.01,2013-03-10 22:50:00,
2013-03-10 17:55:00,27.2,24.7,29.85,NW,315,5.0,10.0,90,0.00,,,0.02,VWS V14.01,2013-03-10 22:55:00,
2013-03-10 18:00:00,27.2,24.4,29.85,NW,318,7.0,12.0,89,0.00,,,0.02,VWS V14.01,2013-03-10 23:00:00,
2013-03-10 18:05:00,27.1,24.3,29.85,NNW,327,9.0,13.0,89,0.00,,,0.02,VWS V14.01,2013-03-10 23:05:00,
2013-03-10 18:11:00,27.1,24.3,29.85,NW,316,8.0,13.0,89,0.00,,,0.02,VWS V14.01,2013-03-10 23:11:00,
2013-03-10 18:16:00,27.1,24.3,29.85,WNW,291,9.0,12.0,89,0.00,,,0.02,VWS V14.01,2013-03-10 23:16:00,
2013-03-10 18:21:00,27.1,24.0,29.85,NNW,329,9.0,15.0,88,0.00,,,0.02,VWS V14.01,2013-03-10 23:21:00,
2013-03-10 18:26:00,27.1,24.0,29.85,NW,309,11.0,12.0,88,0.00,,,0.02,VWS V14.01,2013-03-10 23:26:00,
2013-03-10 18:31:00,27.0,23.9,29.85,WNW,291,7.0,13.0,88,0.00,,,0.02,VWS V14.01,2013-03-10 23:31:00,
2013-03-10 18:36:00,27.0,23.9,29.86,NNW,333,12.0,17.0,88,0.00,,,0.02,VWS V14.01,2013-03-10 23:36:00,
2013-03-10 18:41:00,27.0,23.9,29.86,NW,321,7.0,18.0,88,0.00,,,0.02,VWS V14.01,2013-03-10 23:41:00,
2013-03-10 18:46:00,26.9,23.8,29.86,NNW,341,8.0,10.0,88,0.00,,,0.02,VWS V14.01,2013-03-10 23:46:00,
2013-03-10 18:51:00,26.9,23.8,29.86,NNW,328,11.0,13.0,88,0.00,,,0.02,VWS V14.01,2013-03-10 23:51:00,
2013-03-10 18:56:00,26.8,23.7,29.86,NW,305,5.0,15.0,88,0.00,,,0.02,VWS V14.01,2013-03-10 23:56:00,
2013-03-10 19:01:00,26.8,23.7,29.87,NNW,328,7.0,8.0,88,0.00,,,0.02,VWS V14.01,2013-03-11 00:01:00,
2013-03-10 19:07:00,26.7,23.6,29.87,NW,305,5.0,13.0,88,0.00,,,0.02,VWS V14.01,2013-03-11 00:07:00,
2013-03-10 19:12:00,26.5,23.7,29.87,NW,312,5.0,12.0,89,0.00,,,0.02,VWS V14.01,2013-03-11 00:12:00,
2013-03-10 19:17:00,26.4,23.6,29.87,NW,313,10.0,12.0,89,0.00,,,0.02,VWS V14.01,2013-03-11 00:17:00,
2013-03-10 19:22:00,26.3,23.8,29.87,WNW,288,11.0,11.0,90,0.00,,,0.02,VWS V14.01,2013-03-11 00:22:00,
2013-03-10 19:27:00,26.2,23.7,29.88,NW,314,13.0,13.0,90,0.00,,,0.02,VWS V14.01,2013-03-11 00:27:00,
2013-03-10 19:32:00,26.1,23.6,29.88,NNW,343,8.0,8.0,90,0.00,,,0.02,VWS V14.01,2013-03-11 00:32:00,
2013-03-10 19:37:00,25.9,23.6,29.88,NW,314,5.0,11.0,91,0.00,,,0.02,VWS V14.01,2013-03-11 00:37:00,
2013-03-10 19:42:00,25.8,23.5,29.88,NW,316,11.0,11.0,91,0.00,,,0.02,VWS V14.01,2013-03-11 00:42:00,
2013-03-10 19:47:00,25.7,23.4,29.88,NNW,339,11.0,12.0,91,0.00,,,0.02,VWS V14.01,2013-03-11 00:47:00,
2013-03-10 19:52:00,25.7,23.4,29.88,WNW,303,8.0,8.0,91,0.00,,,0.02,VWS V14.01,2013-03-11 00:52:00,
2013-03-10 19:57:00,25.6,23.3,29.88,NW,323,6.0,8.0,91,0.00,,,0.02,VWS V14.01,2013-03-11 00:57:00,
2013-03-10 20:02:00,25.6,23.6,29.88,NW,323,7.0,9.0,92,0.00,,,0.02,VWS V14.01,2013-03-11 01:02:00,
2013-03-10 20:07:00,25.6,23.6,29.88,WNW,302,5.0,14.0,92,0.00,,,0.02,VWS V14.01,2013-03-11 01:07:00,
2013-03-10 20:12:00,25.5,23.5,29.88,NNW,330,8.0,10.0,92,0.00,,,0.02,VWS V14.01,2013-03-11 01:12:00,
2013-03-10 20:17:00,25.5,23.5,29.88,NW,311,6.0,9.0,92,0.00,,,0.02,VWS V14.01,2013-03-11 01:17:00,
2013-03-10 20:22:00,25.5,23.5,29.89,NW,317,7.0,12.0,92,0.00,,,0.02,VWS V14.01,2013-03-11 01:22:00,
2013-03-10 20:27:00,25.5,23.5,29.89,WNW,298,7.0,12.0,92,0.00,,,0.02,VWS V14.01,2013-03-11 01:27:00,
2013-03-10 20:32:00,25.5,23.5,29.89,WNW,298,7.0,9.0,92,0.00,,,0.02,VWS V14.01,2013-03-11 01:32:00,
2013-03-10 20:37:00,25.5,23.5,29.89,NNW,327,8.0,14.0,92,0.00,,,0.02,VWS V14.01,2013-03-11 01:37:00,
2013-03-10 20:42:00,25.5,23.5,29.89,NNW,327,5.0,13.0,92,0.00,,,0.02,VWS V14.01,2013-03-11 01:42:00,
2013-03-10 20:47:00,25.5,23.5,29.89,NW,306,5.0,10.0,92,0.00,,,0.02,VWS V14.01,2013-03-11 01:47:00,
2013-03-10 20:52:00,25.5,23.5,29.89,NNW,328,8.0,9.0,92,0.00,,,0.02,VWS V14.01,2013-03-11 01:52:00,
2013-03-10 20:57:00,25.6,23.6,29.89,NW,316,5.0,13.0,92,0.00,,,0.02,VWS V14.01,2013-03-11 01:57:00,
2013-03-10 21:03:00,25.6,23.6,29.89,NNW,347,12.0,13.0,92,0.00,,,0.02,VWS V14.01,2013-03-11 02:03:00,
2013-03-10 21:08:00,25.6,23.6,29.89,NNW,328,4.0,14.0,92,0.00,,,0.02,VWS V14.01,2013-03-11 02:08:00,
2013-03-10 21:13:00,25.6,23.6,29.89,NW,320,7.0,12.0,92,0.00,,,0.02,VWS V14.01,2013-03-11 02:13:00,
2013-03-10 21:18:00,25.8,23.8,29.89,NNW,345,9.0,20.0,92,0.00,,,0.02,VWS V14.01,2013-03-11 02:18:00,
2013-03-10 21:23:00,25.8,23.5,29.90,NNE,14,8.0,15.0,91,0.00,,,0.02,VWS V14.01,2013-03-11 02:23:00,
2013-03-10 21:28:00,25.9,23.6,29.90,NW,310,11.0,11.0,91,0.00,,,0.02,VWS V14.01,2013-03-11 02:28:00,
2013-03-10 21:33:00,25.9,23.6,29.90,WNW,295,4.0,10.0,91,0.00,,,0.02,VWS V14.01,2013-03-11 02:33:00,
2013-03-10 21:38:00,25.8,23.5,29.90,WNW,292,9.0,11.0,91,0.00,,,0.02,VWS V14.01,2013-03-11 02:38:00,
2013-03-10 21:43:00,25.7,23.4,29.91,West,268,6.0,10.0,91,0.00,,,0.02,VWS V14.01,2013-03-11 02:43:00,
2013-03-10 21:48:00,25.7,23.4,29.90,NW,312,7.0,9.0,91,0.00,,,0.02,VWS V14.01,2013-03-11 02:48:00,
2013-03-10 21:53:00,25.6,23.3,29.91,NNW,334,9.0,9.0,91,0.00,,,0.02,VWS V14.01,2013-03-11 02:53:00,
2013-03-10 21:58:00,25.7,23.4,29.91,NW,308,7.0,11.0,91,0.00,,,0.02,VWS V14.01,2013-03-11 02:58:00,
2013-03-10 22:03:00,25.7,23.4,29.91,NW,324,2.0,10.0,91,0.00,,,0.02,VWS V14.01,2013-03-11 03:03:00,
2013-03-10 22:08:00,25.6,23.3,29.92,WNW,303,7.0,8.0,91,0.00,,,0.02,VWS V14.01,2013-03-11 03:08:00,
2013-03-10 22:13:00,25.7,23.4,29.92,West,265,8.0,11.0,91,0.00,,,0.02,VWS V14.01,2013-03-11 03:13:00,
2013-03-10 22:18:00,25.7,23.4,29.92,NNW,327,9.0,11.0,91,0.00,,,0.02,VWS V14.01,2013-03-11 03:18:00,
2013-03-10 22:23:00,25.8,23.5,29.92,NW,304,8.0,9.0,91,0.00,,,0.02,VWS V14.01,2013-03-11 03:23:00,
2013-03-10 22:28:00,25.8,23.5,29.92,NNW,343,8.0,10.0,91,0.00,,,0.02,VWS V14.01,2013-03-11 03:28:00,
2013-03-10 22:33:00,25.9,23.6,29.92,NNW,329,3.0,12.0,91,0.00,,,0.02,VWS V14.01,2013-03-11 03:33:00,
2013-03-10 22:38:00,25.9,23.6,29.92,NW,310,7.0,12.0,91,0.00,,,0.02,VWS V14.01,2013-03-11 03:38:00,
2013-03-10 22:43:00,25.9,23.4,29.92,NW,319,7.0,13.0,90,0.00,,,0.02,VWS V14.01,2013-03-11 03:43:00,
2013-03-10 22:48:00,25.9,23.1,29.93,NNW,344,7.0,10.0,89,0.00,,,0.02,VWS V14.01,2013-03-11 03:48:00,
2013-03-10 22:53:00,26.0,22.9,29.92,NW,322,10.0,12.0,88,0.00,,,0.02,VWS V14.01,2013-03-11 03:53:00,
2013-03-10 22:58:00,26.1,23.0,29.92,NNW,337,6.0,11.0,88,0.00,,,0.02,VWS V14.01,2013-03-11 03:58:00,
2013-03-10 23:00:00,26.1,22.8,29.92,NW,314,12.0,12.0,87,0.00,,,0.02,VWS V14.01,2013-03-11 04:00:00,
2013-03-10 23:01:00,26.1,22.8,29.92,NW,306,6.0,13.0,87,0.00,,,0.02,VWS V14.01,2013-03-11 04:01:00,
2013-03-10 23:06:00,26.1,22.8,29.92,NW,319,11.0,15.0,87,0.00,,,0.02,VWS V14.01,2013-03-11 04:06:00,
2013-03-10 23:11:00,26.2,22.9,29.92,NW,314,6.0,9.0,87,0.00,,,0.02,VWS V14.01,2013-03-11 04:11:00,
2013-03-10 23:16:00,26.1,23.0,29.93,NW,312,3.0,8.0,88,0.00,,,0.02,VWS V14.01,2013-03-11 04:16:00,
2013-03-10 23:21:00,26.0,23.2,29.93,NW,310,7.0,7.0,89,0.00,,,0.02,VWS V14.01,2013-03-11 04:21:00,
2013-03-10 23:27:00,25.9,23.1,29.93,NW,312,5.0,9.0,89,0.00,,,0.02,VWS V14.01,2013-03-11 04:27:00,
2013-03-10 23:32:00,25.8,23.0,29.93,NNW,337,4.0,8.0,89,0.00,,,0.02,VWS V14.01,2013-03-11 04:32:00,
2013-03-10 23:37:00,25.7,22.9,29.93,WNW,302,7.0,14.0,89,0.00,,,0.02,VWS V14.01,2013-03-11 04:37:00,
2013-03-10 23:42:00,25.7,22.6,29.93,NW,324,5.0,11.0,88,0.00,,,0.02,VWS V14.01,2013-03-11 04:42:00,
2013-03-10 23:47:00,25.7,22.1,29.93,NW,322,4.0,11.0,86,0.00,,,0.02,VWS V14.01,2013-03-11 04:47:00,
2013-03-10 23:52:00,25.7,22.1,29.93,WNW,299,8.0,15.0,86,0.00,,,0.02,VWS V14.01,2013-03-11 04:52:00,
2013-03-10 23:57:00,25.5,21.9,29.93,NNW,334,8.0,13.0,86,0.00,,,0.02,VWS V14.01,2013-03-11 04:57:00,